Weather observations for the past three days for
Montrose, Montrose Regional Airport
Imperial (Metric)
Date Time (mdt) Wind (mph) Vis. (mi.) Weather Sky Cond. Temperature (ºF) Relative Humidity Wind Chill (°F) Heat Index (°F) Pressure Precipitation (in)
Air Dwpt 6 hour altimeter (in) sea level (mb) 1 hr 3 hr 6 hr
Max. Min.
13 22:53 SE 8 10.00 Fair CLR 73 37 27% 30.16 1011.0
13 21:53 SE 6 10.00 Fair CLR 77 36 23% 77 30.16 1011.1
13 20:53 Vrbl 7 10.00 Partly Cloudy SCT110 80.1 37 21% 79 30.15 1011.5
13 19:53 SE 17 G 25 10.00 Fair CLR 84.9 33.1 15% 82 30.15 1011.4
13 18:53 SW 8 G 20 10.00 Fair CLR 87.1 37 17% 84 30.13 1011.2
13 17:53 N 17 10.00 Fair CLR 88 36 95 88 16% 84 30.11 1010.7
13 16:53 W 20 G 29 10.00 Fair CLR 91.9 30 11% 88 30.11 1010.1
13 15:53 Vrbl 5 10.00 Fair CLR 93.9 28.9 10% 89 30.12 1010.1
13 14:53 W 12 10.00 A Few Clouds FEW070 FEW110 91.9 25 9% 88 30.15 1011.0
13 13:53 Vrbl 6 10.00 Fair CLR 93.9 27 9% 89 30.16 1011.3
13 12:53 N 9 G 21 10.00 Fair CLR 93 25 8% 88 30.18 1011.7
13 11:53 Calm 10.00 Fair CLR 90 24.1 91.9 61 9% 86 30.19 1012.4
13 10:53 Vrbl 5 10.00 Fair CLR 89.1 26.1 10% 85 30.2 1012.6
13 09:53 Vrbl 3 10.00 Fair CLR 84 34 17% 81 30.21 1013.1
13 08:53 Calm 10.00 Fair CLR 75.9 39 26% 77 30.21 1013.5
13 07:53 Calm 10.00 Fair CLR 71.1 35.1 27% 30.2 1012.7
13 06:53 SE 8 10.00 Fair CLR 64 30.9 29% 30.19 1012.6
13 05:53 SE 13 10.00 Fair CLR 61 30 71.1 60.1 31% 30.16 1012.1
13 04:53 SE 6 10.00 Fair CLR 63 28 27% 30.14 1011.2
13 03:53 SE 10 10.00 Fair CLR 64 28 26% 30.12 1010.4
13 02:53 SE 10 10.00 Fair CLR 68 27 21% 30.11 1009.6
13 01:53 SE 13 10.00 Fair CLR 68 28 22% 30.11 1009.6
13 00:53 SE 12 10.00 Fair CLR 70 30 23% 30.11 1009.6
12 23:53 SE 12 10.00 Fair CLR 70 30 93.9 70 23% 30.12 1010.3
12 22:53 E 12 10.00 Fair CLR 73 30.9 21% 30.12 1010.0
12 21:53 SE 10 10.00 Fair CLR 75 33.1 22% 76 30.11 1010.0
12 20:53 S 3 10.00 Fair CLR 82 28.9 14% 80 30.08 1009.1
12 19:53 SW 5 10.00 Fair CLR 90 28 11% 86 30.07 1008.6
12 18:53 SW 9 10.00 Fair CLR 91 28 10% 87 30.07 1008.6
12 17:53 Vrbl 5 10.00 Fair CLR 91 28.9 95 88 11% 87 30.07 1009.0
12 16:53 W 9 10.00 Fair CLR 91.9 26.1 9% 88 30.09 1009.3
12 15:53 Vrbl 3 10.00 Fair CLR 91.9 27 10% 88 30.11 1009.9
12 14:53 W 9 10.00 Fair CLR 93 26.1 9% 88 30.13 1010.5
12 13:53 NW 12 G 18 10.00 Fair CLR 91 32 12% 87 30.15 1011.1
12 12:53 Vrbl 5 10.00 Fair CLR 91 30.9 12% 87 30.16 1011.3
12 11:53 SE 7 10.00 Fair CLR 88 34 89.1 61 15% 84 30.18 1012.2
12 10:53 Calm 10.00 Fair CLR 86 36 17% 83 30.19 1012.7
12 09:53 Vrbl 3 10.00 Fair CLR 80.1 37 21% 79 30.2 1013.1
12 08:53 SE 7 10.00 Fair CLR 73.9 37 26% 30.2 1013.3
12 07:53 S 8 10.00 Fair CLR 66.9 37 33% 30.19 1013.3
12 06:53 SE 8 10.00 Fair CLR 64 37 37% 30.18 1013.1
12 05:53 SE 9 10.00 Fair CLR 62.1 36 70 61 38% 30.15 1012.1
12 04:53 SE 9 10.00 Fair CLR 64 36 35% 30.14 1011.5
12 03:53 SE 10 10.00 Fair CLR 63 36 37% 30.14 1011.4
12 02:53 SE 9 10.00 Fair CLR 64 37 37% 30.14 1011.2
12 01:53 SE 6 10.00 Fair CLR 66.9 37 33% 30.14 1011.2
12 00:53 SE 13 10.00 Fair CLR 69.1 36 30% 30.13 1010.7
11 23:53 SE 12 10.00 Fair CLR 69.1 37.9 88 69.1 32% 30.13 1011.0
11 22:53 SE 9 10.00 Fair CLR 70 39 32% 30.12 1011.1
11 21:53 S 10 10.00 Fair CLR 75 37.9 26% 77 30.1 1010.1
11 20:53 S 7 10.00 Fair CLR 79 39.9 25% 78 30.08 1009.5
11 19:53 S 7 10.00 Fair CLR 84 37 19% 81 30.06 1009.1
11 18:53 S 9 10.00 Fair CLR 84.9 36 17% 82 30.06 1009.6
11 17:53 N 9 10.00 Fair CLR 88 34 90 82 15% 84 30.07 1009.7
11 16:53 NW 12 G 18 10.00 Fair CLR 89.1 35.1 15% 85 30.07 1009.4
11 15:53 N 9 10.00 Fair CLR 88 37 16% 84 30.1 1010.2
11 14:53 NW 14 G 21 10.00 Fair CLR 89.1 37 16% 85 30.12 1010.6
11 13:53 NW 14 G 20 10.00 Fair CLR 87.1 37 17% 84 30.13 1011.3
11 12:53 Calm 10.00 Fair CLR 86 35.1 16% 83 30.15 1011.8
11 11:53 Vrbl 3 10.00 Fair CLR 82 44.1 82 55.9 26% 80 30.17 1012.9
11 10:53 N 6 10.00 Fair CLR 79 46 31% 79 30.18 1013.7
11 09:53 N 8 10.00 Fair CLR 75.9 48 37% 78 30.18 1014.0
11 08:53 Calm 10.00 Fair CLR 71.1 48 44% 30.19 1014.3
11 07:53 Calm 10.00 Fair CLR 64 46 52% 30.19 1014.6
11 06:53 S 6 10.00 Fair CLR 57.9 45 62% 30.18 1014.1
11 05:53 S 6 10.00 Fair CLR 55.9 45 66.9 55.9 67% 30.17 1013.9
11 04:53 Vrbl 5 10.00 Fair CLR 61 46.9 60% 30.16 1012.9
11 03:53 S 6 10.00 Fair CLR 62.1 48 60% 30.15 1012.7
11 02:53 S 6 10.00 Partly Cloudy SCT110 63 48.9 60% 30.14 1012.0
11 01:53 E 5 10.00 A Few Clouds FEW120 64 46.9 54% 30.14 1011.8
11 00:53 E 12 10.00 A Few Clouds FEW120 66 48 52% 30.13 1011.7
10 23:53 E 8 G 24 10.00 A Few Clouds FEW120 66 48 82.9 62.1 52% 30.14 1011.9 0.08
Date Time (mdt) Wind (mph) Vis. (mi.) Weather Sky Cond. Air Dwpt Max. Min. Relative Humidity Wind Chill (°F) Heat Index (°F) altimeter (in) sea level (mb) 1 hr 3 hr 6 hr
6 hour
Temperature (ºF) Pressure Precipitation (in)